Location: Chandrammap?lem
(16.9200°N, 81.0051°E)
Time: 14:21:28
(UTC+00:00)

Cosmos 1603 - Pass Details

Date: 29 May 2024
Orbit: 829 x 860 km, 71.0° (Epoch: 16 June)

Event Time Altitude Azimuth Distance (km) Brightness Sun altitude
Rises 13:33:56 0° 179° (S) 3,366 6.6 -7.1°
Reaches altitude 10° 13:36:30 10° 171° (S) 2,438 5.8 -7.7°
Maximum altitude 13:41:40 39° 104° (ESE) 1,235 4.1 -8.8°
Drops below altitude 10° 13:46:52 10° 36° (NE) 2,461 6.0 -9.9°
Sets 13:49:27 0° 29° (NNE) 3,402 6.8 -10.4°
